Station Historical Data
Daily Summary for April 7, 2012 Units:  English    Metric   Both
« Previous Day
Next Day »
Daily Weekly Monthly Yearly Custom
  High: Low: Average:
Temperature: 72.9 °F 43.2 °F 58.7 °F
Dew Point: 55.3 °F 39.0 °F 46.7 °F
Humidity: 86% 44% 66%
Wind Speed: 11.0mph 0.0mph 2.6mph
Wind Gust: 17.0mph - -
Wind- - ESE
Pressure: 30.22 in 30.09 in -
Precipitation: 0.00 in    
Historical Graphs
 
 
Tabular Data for April 7, 2012
Time Temperature Dew Point Pressure Wind Wind Speed Wind Gust Humidity Rainfall Rate (Hourly) Conditions
00:00 52.1 °F 39.9 °F 30.09 in NNW 3.0 mph 7.0 mph 63% 0.00 in
00:03 52.0 °F 39.8 °F 30.09 in NE 6.0 mph 6.0 mph 63% 0.00 in
00:08 52.3 °F 39.7 °F 30.09 in NNE 3.0 mph 8.0 mph 62% 0.00 in
00:13 52.2 °F 39.6 °F 30.09 in NE 2.0 mph 4.0 mph 62% 0.00 in
00:18 52.1 °F 39.9 °F 30.09 in NE 5.0 mph 6.0 mph 63% 0.00 in
00:23 52.0 °F 39.8 °F 30.09 in ENE 5.0 mph 7.0 mph 63% 0.00 in
00:28 52.1 °F 39.5 °F 30.09 in NE 3.0 mph 7.0 mph 62% 0.00 in
00:33 52.0 °F 39.8 °F 30.09 in NE 3.0 mph 6.0 mph 63% 0.00 in
00:38 51.8 °F 39.6 °F 30.09 in NNE 5.0 mph 5.0 mph 63% 0.00 in
00:43 51.7 °F 39.9 °F 30.10 in NE 4.0 mph 5.0 mph 64% 0.00 in
00:48 51.7 °F 39.9 °F 30.09 in NE 3.0 mph 8.0 mph 64% 0.00 in
00:53 51.6 °F 39.8 °F 30.10 in NNE 3.0 mph 8.0 mph 64% 0.00 in
00:58 51.4 °F 39.7 °F 30.10 in NNE 3.0 mph 6.0 mph 64% 0.00 in
01:03 51.3 °F 40.0 °F 30.10 in NE 3.0 mph 5.0 mph 65% 0.00 in
01:08 51.3 °F 40.0 °F 30.10 in North 7.0 mph 7.0 mph 65% 0.00 in
01:13 51.2 °F 39.8 °F 30.10 in NE 6.0 mph 6.0 mph 65% 0.00 in
01:18 51.1 °F 39.8 °F 30.10 in NNE 3.0 mph 5.0 mph 65% 0.00 in
01:23 51.0 °F 39.7 °F 30.10 in NE 2.0 mph 6.0 mph 65% 0.00 in
01:28 50.9 °F 40.0 °F 30.10 in NE 4.0 mph 6.0 mph 66% 0.00 in
01:33 50.8 °F 39.9 °F 30.10 in NNE 3.0 mph 7.0 mph 66% 0.00 in
01:38 50.6 °F 39.7 °F 30.10 in NE 4.0 mph 6.0 mph 66% 0.00 in
01:43 50.5 °F 40.0 °F 30.10 in NNE 2.0 mph 5.0 mph 67% 0.00 in
01:48 50.2 °F 39.7 °F 30.10 in NNE 2.0 mph 4.0 mph 67% 0.00 in
01:54 49.9 °F 39.8 °F 30.10 in NE 4.0 mph 5.0 mph 68% 0.00 in
01:59 49.9 °F 39.8 °F 30.10 in NE 2.0 mph 7.0 mph 68% 0.00 in
02:04 49.7 °F 40.0 °F 30.10 in NE 5.0 mph 5.0 mph 69% 0.00 in
02:09 49.6 °F 39.9 °F 30.10 in NE 6.0 mph 6.0 mph 69% 0.00 in
02:14 49.5 °F 39.8 °F 30.10 in NE 2.0 mph 5.0 mph 69% 0.00 in
02:19 49.4 °F 40.0 °F 30.10 in NE 3.0 mph 5.0 mph 70% 0.00 in
02:24 49.3 °F 39.9 °F 30.10 in NNE 5.0 mph 5.0 mph 70% 0.00 in
02:29 49.3 °F 39.9 °F 30.10 in NE 4.0 mph 5.0 mph 70% 0.00 in
02:34 49.1 °F 39.8 °F 30.10 in NE 2.0 mph 6.0 mph 70% 0.00 in
02:39 49.0 °F 40.0 °F 30.10 in NNE 2.0 mph 6.0 mph 71% 0.00 in
02:44 48.9 °F 39.9 °F 30.10 in NE 2.0 mph 6.0 mph 71% 0.00 in
02:49 48.6 °F 39.6 °F 30.10 in NNE 5.0 mph 5.0 mph 71% 0.00 in
02:54 48.3 °F 39.7 °F 30.10 in NNE 1.0 mph 4.0 mph 72% 0.00 in
02:59 48.0 °F 39.8 °F 30.10 in NNE 2.0 mph 4.0 mph 73% 0.00 in
03:00 48.0 °F 39.8 °F 30.10 in NNE 2.0 mph 4.0 mph 73% 0.00 in
03:05 47.7 °F 39.5 °F 30.10 in NNE 3.0 mph 4.0 mph 73% 0.00 in
03:10 47.6 °F 39.7 °F 30.10 in NNE 2.0 mph 3.0 mph 74% 0.00 in
03:15 47.6 °F 39.7 °F 30.10 in NE 2.0 mph 4.0 mph 74% 0.00 in
03:20 47.5 °F 39.6 °F 30.10 in NNE 2.0 mph 4.0 mph 74% 0.00 in
03:25 47.5 °F 39.6 °F 30.10 in NNE 1.0 mph 3.0 mph 74% 0.00 in
03:30 47.4 °F 39.5 °F 30.10 in NNE 3.0 mph 3.0 mph 74% 0.00 in
03:35 47.2 °F 39.7 °F 30.11 in NNE 1.0 mph 2.0 mph 75% 0.00 in
03:41 47.0 °F 39.5 °F 30.11 in NNE 2.0 mph 2.0 mph 75% 0.00 in
03:46 46.7 °F 39.5 °F 30.11 in North 1.0 mph 2.0 mph 76% 0.00 in
03:51 46.6 °F 39.5 °F 30.11 in NNE 1.0 mph 2.0 mph 76% 0.00 in
03:56 46.5 °F 39.4 °F 30.11 in NNE 2.0 mph 2.0 mph 76% 0.00 in
04:01 46.5 °F 39.7 °F 30.11 in NE 1.0 mph 3.0 mph 77% 0.00 in
04:06 46.4 °F 39.6 °F 30.11 in NE 2.0 mph 3.0 mph 77% 0.00 in
04:11 46.3 °F 39.5 °F 30.11 in NNE 2.0 mph 3.0 mph 77% 0.00 in
04:16 46.3 °F 39.5 °F 30.11 in NNE 1.0 mph 2.0 mph 77% 0.00 in
04:21 46.3 °F 39.5 °F 30.11 in NNE 3.0 mph 4.0 mph 77% 0.00 in
04:27 46.3 °F 39.5 °F 30.11 in NNE 2.0 mph 4.0 mph 77% 0.00 in
04:32 46.4 °F 39.6 °F 30.11 in North 3.0 mph 4.0 mph 77% 0.00 in
04:37 46.4 °F 39.6 °F 30.11 in NE 3.0 mph 4.0 mph 77% 0.00 in
04:42 46.4 °F 39.6 °F 30.11 in NE 3.0 mph 5.0 mph 77% 0.00 in
04:47 46.5 °F 39.7 °F 30.11 in NE 4.0 mph 7.0 mph 77% 0.00 in
04:52 46.5 °F 39.7 °F 30.11 in NNE 5.0 mph 5.0 mph 77% 0.00 in
04:57 46.5 °F 39.7 °F 30.11 in NE 5.0 mph 6.0 mph 77% 0.00 in
05:02 46.7 °F 39.9 °F 30.11 in NE 5.0 mph 5.0 mph 77% 0.00 in
05:07 46.7 °F 39.9 °F 30.11 in NNE 6.0 mph 7.0 mph 77% 0.00 in
05:13 46.5 °F 39.7 °F 30.11 in NNE 2.0 mph 5.0 mph 77% 0.00 in
05:18 46.3 °F 39.8 °F 30.12 in North 4.0 mph 4.0 mph 78% 0.00 in
05:23 46.1 °F 39.6 °F 30.12 in NNW 4.0 mph 5.0 mph 78% 0.00 in
05:28 46.1 °F 39.6 °F 30.12 in NE 3.0 mph 5.0 mph 78% 0.00 in
05:33 46.0 °F 39.5 °F 30.12 in NNE 2.0 mph 4.0 mph 78% 0.00 in
05:38 46.0 °F 39.5 °F 30.13 in NE 3.0 mph 5.0 mph 78% 0.00 in
05:43 45.7 °F 39.6 °F 30.13 in NE 4.0 mph 5.0 mph 79% 0.00 in
05:48 45.7 °F 39.6 °F 30.13 in NNE 2.0 mph 4.0 mph 79% 0.00 in
05:54 45.5 °F 39.4 °F 30.13 in NNE 2.0 mph 5.0 mph 79% 0.00 in
05:59 45.2 °F 39.4 °F 30.13 in North 3.0 mph 5.0 mph 80% 0.00 in
06:04 45.1 °F 39.3 °F 30.14 in NNE 4.0 mph 4.0 mph 80% 0.00 in
06:09 45.1 °F 39.3 °F 30.14 in NE 3.0 mph 3.0 mph 80% 0.00 in
06:14 45.1 °F 39.3 °F 30.14 in NNE 1.0 mph 4.0 mph 80% 0.00 in
06:19 45.2 °F 39.4 °F 30.14 in NNE 2.0 mph 3.0 mph 80% 0.00 in
06:24 45.2 °F 39.4 °F 30.14 in NE 1.0 mph 3.0 mph 80% 0.00 in
06:29 45.1 °F 39.6 °F 30.14 in NNE 1.0 mph 2.0 mph 81% 0.00 in
06:34 44.9 °F 39.4 °F 30.14 in NE 1.0 mph 3.0 mph 81% 0.00 in
06:39 44.8 °F 39.3 °F 30.14 in NE 2.0 mph 4.0 mph 81% 0.00 in
06:44 44.9 °F 39.4 °F 30.15 in ENE 2.0 mph 3.0 mph 81% 0.00 in
06:49 44.8 °F 39.3 °F 30.15 in NE 1.0 mph 2.0 mph 81% 0.00 in
06:55 44.8 °F 39.3 °F 30.15 in ENE 1.0 mph 2.0 mph 81% 0.00 in
07:00 44.8 °F 39.3 °F 30.15 in NNE 2.0 mph 4.0 mph 81% 0.00 in
07:05 44.7 °F 39.5 °F 30.15 in NE 2.0 mph 3.0 mph 82% 0.00 in
07:10 44.6 °F 39.5 °F 30.16 in NE 2.0 mph 2.0 mph 82% 0.00 in
07:15 44.5 °F 39.4 °F 30.16 in NE 1.0 mph 2.0 mph 82% 0.00 in
07:20 44.3 °F 39.5 °F 30.16 in NE 1.0 mph 2.0 mph 83% 0.00 in
07:25 44.1 °F 39.3 °F 30.17 in ENE 1.0 mph 1.0 mph 83% 0.00 in
07:30 44.0 °F 39.2 °F 30.17 in ENE 1.0 mph 2.0 mph 83% 0.00 in
07:35 43.9 °F 39.1 °F 30.18 in ENE 1.0 mph 1.0 mph 83% 0.00 in
07:41 43.8 °F 39.3 °F 30.18 in Calm   1.0 mph 84% 0.00 in
07:46 43.8 °F 39.3 °F 30.19 in Calm     84% 0.00 in
07:51 43.5 °F 39.0 °F 30.19 in Calm     84% 0.00 in
07:56 43.2 °F 39.0 °F 30.19 in Calm   1.0 mph 85% 0.00 in
08:01 43.3 °F 39.4 °F 30.19 in Calm   1.0 mph 86% 0.00 in
08:06 44.1 °F 39.9 °F 30.20 in ENE 1.0 mph 2.0 mph 85% 0.00 in
08:11 45.3 °F 40.8 °F 30.20 in Calm   1.0 mph 84% 0.00 in
08:16 46.2 °F 40.7 °F 30.20 in East 1.0 mph 2.0 mph 81% 0.00 in
08:21 46.7 °F 40.9 °F 30.20 in NE 1.0 mph 2.0 mph 80% 0.00 in
08:26 47.2 °F 41.4 °F 30.20 in ENE 1.0 mph 3.0 mph 80% 0.00 in
08:31 47.6 °F 41.4 °F 30.21 in East 1.0 mph 3.0 mph 79% 0.00 in
08:36 48.1 °F 41.9 °F 30.21 in East 2.0 mph 3.0 mph 79% 0.00 in
08:41 48.7 °F 42.2 °F 30.21 in ENE 3.0 mph 5.0 mph 78% 0.00 in
08:46 49.1 °F 41.9 °F 30.21 in ENE 2.0 mph 5.0 mph 76% 0.00 in
08:51 49.7 °F 42.5 °F 30.21 in NNE 2.0 mph 4.0 mph 76% 0.00 in
08:56 50.5 °F 42.5 °F 30.21 in NE 3.0 mph 3.0 mph 74% 0.00 in
09:01 50.9 °F 42.2 °F 30.21 in ENE 5.0 mph 6.0 mph 72% 0.00 in
09:06 51.4 °F 42.0 °F 30.21 in ENE 4.0 mph 6.0 mph 70% 0.00 in
09:11 51.9 °F 42.1 °F 30.21 in East 2.0 mph 5.0 mph 69% 0.00 in
09:17 52.3 °F 42.1 °F 30.21 in ESE 2.0 mph 6.0 mph 68% 0.00 in
09:22 52.6 °F 43.1 °F 30.22 in ESE 3.0 mph 5.0 mph 70% 0.00 in
09:27 53.3 °F 43.4 °F 30.22 in ESE 2.0 mph 5.0 mph 69% 0.00 in
09:32 53.8 °F 43.1 °F 30.22 in East 3.0 mph 6.0 mph 67% 0.00 in
09:37 54.3 °F 43.6 °F 30.22 in ESE 3.0 mph 5.0 mph 67% 0.00 in
09:42 54.9 °F 43.4 °F 30.22 in East 4.0 mph 7.0 mph 65% 0.00 in
09:47 55.3 °F 42.5 °F 30.22 in ESE 5.0 mph 5.0 mph 62% 0.00 in
09:52 55.7 °F 43.7 °F 30.22 in SE 3.0 mph 5.0 mph 64% 0.00 in
09:57 56.5 °F 43.7 °F 30.22 in East 4.0 mph 6.0 mph 62% 0.00 in
10:02 56.7 °F 44.3 °F 30.22 in ESE 4.0 mph 5.0 mph 63% 0.00 in
10:08 57.0 °F 41.9 °F 30.21 in ESE 4.0 mph 6.0 mph 57% 0.00 in
10:13 57.3 °F 43.5 °F 30.22 in SE 4.0 mph 5.0 mph 60% 0.00 in
10:18 58.0 °F 45.1 °F 30.22 in ESE 4.0 mph 6.0 mph 62% 0.00 in
10:23 58.5 °F 42.9 °F 30.22 in SE 7.0 mph 9.0 mph 56% 0.00 in
10:28 58.8 °F 44.5 °F 30.21 in SSE 4.0 mph 8.0 mph 59% 0.00 in
10:33 59.3 °F 44.5 °F 30.22 in SSE 5.0 mph 7.0 mph 58% 0.00 in
10:39 59.6 °F 43.4 °F 30.22 in SE 5.0 mph 9.0 mph 55% 0.00 in
10:44 60.1 °F 45.3 °F 30.21 in SE 6.0 mph 9.0 mph 58% 0.00 in
10:49 60.4 °F 45.6 °F 30.21 in ESE 6.0 mph 9.0 mph 58% 0.00 in
10:54 61.3 °F 45.0 °F 30.22 in SSE 7.0 mph 9.0 mph 55% 0.00 in
10:59 62.0 °F 45.7 °F 30.22 in SE 3.0 mph 7.0 mph 55% 0.00 in
11:04 62.5 °F 46.1 °F 30.22 in SSE 5.0 mph 7.0 mph 55% 0.00 in
11:09 62.7 °F 46.8 °F 30.22 in SSE 6.0 mph 8.0 mph 56% 0.00 in
11:14 62.9 °F 47.5 °F 30.22 in ESE 4.0 mph 8.0 mph 57% 0.00 in
11:19 63.4 °F 48.8 °F 30.22 in SE 9.0 mph 9.0 mph 59% 0.00 in
11:24 63.4 °F 49.3 °F 30.22 in SE 7.0 mph 8.0 mph 60% 0.00 in
11:29 64.0 °F 50.7 °F 30.22 in SSE 5.0 mph 8.0 mph 62% 0.00 in
11:34 64.3 °F 51.5 °F 30.22 in South 5.0 mph 7.0 mph 63% 0.00 in
11:39 64.6 °F 51.7 °F 30.22 in SE 5.0 mph 9.0 mph 63% 0.00 in
11:44 64.5 °F 51.6 °F 30.22 in SSE 8.0 mph 8.0 mph 63% 0.00 in
11:49 64.8 °F 52.8 °F 30.22 in SW 4.0 mph 8.0 mph 65% 0.00 in
11:54 65.2 °F 52.3 °F 30.22 in SSE 10.0 mph 10.0 mph 63% 0.00 in
11:59 65.2 °F 54.0 °F 30.22 in SSE 11.0 mph 11.0 mph 67% 0.00 in
12:04 65.5 °F 53.4 °F 30.22 in South 4.0 mph 7.0 mph 65% 0.00 in
12:09 66.0 °F 54.3 °F 30.21 in SE 9.0 mph 10.0 mph 66% 0.00 in
12:14 65.7 °F 54.5 °F 30.21 in SSE 7.0 mph 9.0 mph 67% 0.00 in
12:19 65.8 °F 53.7 °F 30.21 in SSE 4.0 mph 9.0 mph 65% 0.00 in
12:24 66.2 °F 54.5 °F 30.21 in South 6.0 mph 11.0 mph 66% 0.00 in
12:29 66.0 °F 53.9 °F 30.21 in South 4.0 mph 7.0 mph 65% 0.00 in
12:34 66.2 °F 52.8 °F 30.20 in WSW 3.0 mph 7.0 mph 62% 0.00 in
12:40 66.3 °F 53.3 °F 30.20 in SW 7.0 mph 7.0 mph 63% 0.00 in
12:45 67.0 °F 55.3 °F 30.20 in SSE 7.0 mph 9.0 mph 66% 0.00 in
12:50 67.3 °F 53.8 °F 30.20 in SSW 6.0 mph 6.0 mph 62% 0.00 in
12:55 67.3 °F 53.4 °F 30.20 in SW 2.0 mph 4.0 mph 61% 0.00 in
13:00 68.0 °F 54.1 °F 30.20 in ESE 8.0 mph 11.0 mph 61% 0.00 in
13:05 67.4 °F 53.5 °F 30.20 in SW 5.0 mph 9.0 mph 61% 0.00 in
13:10 67.2 °F 51.9 °F 30.20 in West 3.0 mph 6.0 mph 58% 0.00 in
13:15 68.3 °F 54.3 °F 30.20 in SE 4.0 mph 7.0 mph 61% 0.00 in
13:20 69.2 °F 53.8 °F 30.20 in West 4.0 mph 9.0 mph 58% 0.00 in
13:26 69.0 °F 53.2 °F 30.20 in SW 2.0 mph 10.0 mph 57% 0.00 in
13:31 68.7 °F 51.9 °F 30.20 in SSE 3.0 mph 6.0 mph 55% 0.00 in
13:36 68.2 °F 52.4 °F 30.19 in WSW 5.0 mph 8.0 mph 57% 0.00 in
13:41 68.9 °F 52.1 °F 30.20 in SE 7.0 mph 9.0 mph 55% 0.00 in
13:46 69.3 °F 53.4 °F 30.19 in SSE 5.0 mph 8.0 mph 57% 0.00 in
13:51 68.9 °F 52.1 °F 30.19 in SSE 7.0 mph 9.0 mph 55% 0.00 in
13:56 68.8 °F 51.5 °F 30.19 in SE 3.0 mph 7.0 mph 54% 0.00 in
14:01 69.3 °F 50.4 °F 30.19 in SSE 7.0 mph 14.0 mph 51% 0.00 in
14:07 69.4 °F 50.0 °F 30.19 in SSE 2.0 mph 8.0 mph 50% 0.00 in
14:12 69.9 °F 49.9 °F 30.19 in ESE 8.0 mph 10.0 mph 49% 0.00 in
14:17 69.4 °F 50.5 °F 30.19 in South 3.0 mph 5.0 mph 51% 0.00 in
14:22 69.9 °F 52.0 °F 30.19 in WSW 6.0 mph 7.0 mph 53% 0.00 in
14:27 70.3 °F 50.8 °F 30.18 in SW 3.0 mph 6.0 mph 50% 0.00 in
14:32 70.1 °F 49.5 °F 30.18 in Calm   3.0 mph 48% 0.00 in
14:37 70.8 °F 50.2 °F 30.18 in SSW 1.0 mph 2.0 mph 48% 0.00 in
14:42 71.6 °F 52.0 °F 30.18 in WSW 7.0 mph 7.0 mph 50% 0.00 in
14:48 70.1 °F 51.7 °F 30.18 in WNW 3.0 mph 6.0 mph 52% 0.00 in
14:53 69.1 °F 50.2 °F 30.17 in WNW 1.0 mph 6.0 mph 51% 0.00 in
14:58 69.5 °F 51.1 °F 30.17 in SSE 5.0 mph 7.0 mph 52% 0.00 in
15:03 70.5 °F 51.5 °F 30.17 in SSW 2.0 mph 9.0 mph 51% 0.00 in
15:08 70.9 °F 52.4 °F 30.17 in SSE 3.0 mph 5.0 mph 52% 0.00 in
15:13 71.5 °F 52.4 °F 30.17 in SSW 4.0 mph 9.0 mph 51% 0.00 in
15:18 72.0 °F 50.1 °F 30.17 in Calm   4.0 mph 46% 0.00 in
15:23 72.6 °F 49.5 °F 30.17 in WSW 6.0 mph 17.0 mph 44% 0.00 in
15:25 72.1 °F 50.2 °F 30.17 in SSE 5.0 mph 7.0 mph 46% 0.00 in
15:30 72.2 °F 50.9 °F 30.17 in SSE 6.0 mph 8.0 mph 47% 0.00 in
15:35 72.5 °F 53.9 °F 30.17 in South 4.0 mph 6.0 mph 52% 0.00 in
15:41 72.0 °F 51.8 °F 30.17 in ESE 4.0 mph 8.0 mph 49% 0.00 in
15:46 71.7 °F 53.2 °F 30.17 in SE 7.0 mph 7.0 mph 52% 0.00 in
15:51 71.6 °F 53.1 °F 30.17 in SE 6.0 mph 7.0 mph 52% 0.00 in
15:56 71.5 °F 50.8 °F 30.16 in SSE 5.0 mph 7.0 mph 48% 0.00 in
16:01 72.0 °F 52.4 °F 30.16 in South 7.0 mph 9.0 mph 50% 0.00 in
16:06 72.5 °F 53.4 °F 30.16 in SSW 7.0 mph 7.0 mph 51% 0.00 in
16:11 71.9 °F 51.2 °F 30.16 in South 3.0 mph 7.0 mph 48% 0.00 in
16:16 71.3 °F 50.6 °F 30.16 in SW 2.0 mph 4.0 mph 48% 0.00 in
16:21 71.6 °F 52.0 °F 30.16 in SE 6.0 mph 6.0 mph 50% 0.00 in
16:26 71.9 °F 53.3 °F 30.15 in ESE 4.0 mph 8.0 mph 52% 0.00 in
16:31 71.8 °F 53.8 °F 30.15 in ESE 4.0 mph 6.0 mph 53% 0.00 in
16:36 71.7 °F 52.6 °F 30.15 in ESE 3.0 mph 5.0 mph 51% 0.00 in
16:42 72.4 °F 53.8 °F 30.15 in SE 1.0 mph 3.0 mph 52% 0.00 in
16:47 72.8 °F 51.4 °F 30.15 in South 5.0 mph 9.0 mph 47% 0.00 in
16:52 72.9 °F 50.9 °F 30.15 in South 3.0 mph 7.0 mph 46% 0.00 in
16:57 72.8 °F 50.8 °F 30.14 in WSW 3.0 mph 9.0 mph 46% 0.00 in
17:02 72.4 °F 50.5 °F 30.14 in SW 4.0 mph 5.0 mph 46% 0.00 in
17:07 72.1 °F 51.3 °F 30.14 in Calm   2.0 mph 48% 0.00 in
17:12 72.4 °F 52.7 °F 30.15 in WSW 1.0 mph 1.0 mph 50% 0.00 in
17:18 71.9 °F 51.2 °F 30.15 in SW 2.0 mph 4.0 mph 48% 0.00 in
17:23 71.4 °F 50.7 °F 30.15 in SSW 1.0 mph 1.0 mph 48% 0.00 in
17:28 71.6 °F 50.9 °F 30.15 in ESE 6.0 mph 6.0 mph 48% 0.00 in
17:33 71.5 °F 50.8 °F 30.15 in North 1.0 mph 2.0 mph 48% 0.00 in
17:38 71.6 °F 50.9 °F 30.15 in Calm   3.0 mph 48% 0.00 in
17:43 71.9 °F 51.7 °F 30.15 in West 3.0 mph 3.0 mph 49% 0.00 in
17:48 72.0 °F 52.9 °F 30.15 in WSW 1.0 mph 2.0 mph 51% 0.00 in
17:53 72.0 °F 51.3 °F 30.15 in SW 6.0 mph 6.0 mph 48% 0.00 in
17:58 71.5 °F 51.9 °F 30.15 in Calm   4.0 mph 50% 0.00 in
18:03 71.2 °F 51.6 °F 30.15 in SW 2.0 mph 3.0 mph 50% 0.00 in
18:08 70.8 °F 51.3 °F 30.16 in SW 1.0 mph 4.0 mph 50% 0.00 in
18:09 70.7 °F 52.2 °F 30.15 in SW 3.0 mph 3.0 mph 52% 0.00 in
18:15 70.4 °F 52.5 °F 30.15 in SW 1.0 mph 2.0 mph 53% 0.00 in
18:20 70.5 °F 52.0 °F 30.15 in Calm   1.0 mph 52% 0.00 in
18:25 70.7 °F 51.7 °F 30.16 in SW 1.0 mph 2.0 mph 51% 0.00 in
18:30 70.9 °F 51.3 °F 30.16 in Calm   1.0 mph 50% 0.00 in
18:36 71.1 °F 52.1 °F 30.16 in Calm   2.0 mph 51% 0.00 in
18:37 71.1 °F 51.5 °F 30.16 in Calm   2.0 mph 50% 0.00 in
18:42 71.4 °F 51.3 °F 30.15 in Calm   1.0 mph 49% 0.00 in
18:47 71.6 °F 53.1 °F 30.15 in Calm     52% 0.00 in
18:52 71.4 °F 53.9 °F 30.15 in ESE 1.0 mph 1.0 mph 54% 0.00 in
18:57 70.8 °F 53.3 °F 30.15 in Calm   1.0 mph 54% 0.00 in
19:02 70.9 °F 52.4 °F 30.16 in Calm     52% 0.00 in
19:07 71.0 °F 53.0 °F 30.15 in Calm     53% 0.00 in
19:12 70.8 °F 52.8 °F 30.15 in Calm     53% 0.00 in
19:18 70.9 °F 54.4 °F 30.15 in ESE 1.0 mph 1.0 mph 56% 0.00 in
19:23 71.0 °F 51.5 °F 30.15 in East 1.0 mph 1.0 mph 50% 0.00 in
19:28 70.8 °F 51.3 °F 30.15 in Calm   2.0 mph 50% 0.00 in
19:33 70.6 °F 51.1 °F 30.15 in ENE 1.0 mph 1.0 mph 50% 0.00 in
19:37 70.3 °F 51.9 °F 30.15 in Calm   1.0 mph 52% 0.00 in
19:43 70.0 °F 51.1 °F 30.15 in Calm   1.0 mph 51% 0.00 in
19:48 69.8 °F 52.4 °F 30.15 in Calm   1.0 mph 54% 0.00 in
19:53 69.4 °F 52.0 °F 30.15 in Calm   1.0 mph 54% 0.00 in
19:58 69.1 °F 51.8 °F 30.15 in Calm     54% 0.00 in
20:03 68.8 °F 52.0 °F 30.15 in ENE 1.0 mph 1.0 mph 55% 0.00 in
20:08 68.3 °F 52.5 °F 30.15 in Calm   1.0 mph 57% 0.00 in
20:13 67.9 °F 52.1 °F 30.15 in Calm     57% 0.00 in
20:18 67.3 °F 52.5 °F 30.15 in Calm     59% 0.00 in
20:23 66.4 °F 52.6 °F 30.15 in Calm     61% 0.00 in
20:28 65.7 °F 52.8 °F 30.15 in Calm     63% 0.00 in
20:33 64.9 °F 52.9 °F 30.15 in Calm     65% 0.00 in
20:38 64.0 °F 52.8 °F 30.15 in Calm     67% 0.00 in
20:43 63.3 °F 53.0 °F 30.15 in ENE 1.0 mph 1.0 mph 69% 0.00 in
20:48 63.5 °F 53.2 °F 30.15 in ENE 1.0 mph 1.0 mph 69% 0.00 in
20:54 63.4 °F 53.5 °F 30.15 in Calm   1.0 mph 70% 0.00 in
20:59 62.7 °F 53.5 °F 30.15 in Calm   1.0 mph 72% 0.00 in
21:04 62.2 °F 52.7 °F 30.15 in Calm     71% 0.00 in
21:09 61.9 °F 52.8 °F 30.15 in Calm     72% 0.00 in
21:14 61.4 °F 53.0 °F 30.16 in Calm     74% 0.00 in
21:19 61.0 °F 52.7 °F 30.16 in Calm     74% 0.00 in
21:24 60.4 °F 52.5 °F 30.16 in Calm     75% 0.00 in
21:29 59.9 °F 52.3 °F 30.16 in Calm     76% 0.00 in
21:34 59.7 °F 52.1 °F 30.16 in Calm     76% 0.00 in
21:39 59.6 °F 52.4 °F 30.17 in Calm     77% 0.00 in
21:44 59.4 °F 52.5 °F 30.17 in Calm     78% 0.00 in
21:49 59.1 °F 52.3 °F 30.17 in Calm     78% 0.00 in
21:54 58.6 °F 52.5 °F 30.17 in Calm     80% 0.00 in
21:59 58.3 °F 52.5 °F 30.17 in Calm     81% 0.00 in
22:04 58.4 °F 52.6 °F 30.17 in Calm   1.0 mph 81% 0.00 in
22:09 58.6 °F 53.1 °F 30.17 in WSW 2.0 mph 4.0 mph 82% 0.00 in
22:14 58.8 °F 53.7 °F 30.17 in Calm   3.0 mph 83% 0.00 in
22:19 58.7 °F 53.6 °F 30.17 in SSW 1.0 mph 1.0 mph 83% 0.00 in
22:24 58.6 °F 53.1 °F 30.16 in Calm   1.0 mph 82% 0.00 in
22:29 58.7 °F 52.9 °F 30.16 in Calm     81% 0.00 in
22:35 58.5 °F 52.7 °F 30.16 in Calm     81% 0.00 in
22:40 58.4 °F 52.6 °F 30.16 in Calm     81% 0.00 in
22:45 58.3 °F 52.5 °F 30.17 in Calm     81% 0.00 in
22:50 58.0 °F 52.5 °F 30.16 in Calm     82% 0.00 in
22:56 57.6 °F 52.2 °F 30.16 in Calm     82% 0.00 in
23:01 57.6 °F 52.2 °F 30.16 in Calm     82% 0.00 in
23:06 57.3 °F 51.9 °F 30.15 in Calm     82% 0.00 in
23:11 57.1 °F 51.3 °F 30.15 in Calm     81% 0.00 in
23:16 56.8 °F 51.7 °F 30.15 in Calm     83% 0.00 in
23:21 56.3 °F 50.9 °F 30.15 in Calm     82% 0.00 in
23:27 56.3 °F 50.5 °F 30.15 in Calm   1.0 mph 81% 0.00 in
23:32 56.9 °F 50.1 °F 30.15 in Calm   1.0 mph 78% 0.00 in
23:37 57.5 °F 50.0 °F 30.15 in SE 1.0 mph 1.0 mph 76% 0.00 in
23:42 58.3 °F 49.3 °F 30.14 in SE 1.0 mph 1.0 mph 72% 0.00 in
23:47 58.7 °F 48.6 °F 30.15 in Calm   1.0 mph 69% 0.00 in
23:52 58.3 °F 49.0 °F 30.15 in Calm     71% 0.00 in
23:57 57.6 °F 50.1 °F 30.15 in Calm     76% 0.00 in
Compliments of Weather Underground